Time,TemperatureF,DewpointF,PressureIn,WindDirection,WindDirectionDegrees,WindSpeedMPH,WindSpeedGustMPH,Humidity,HourlyPrecipIn,Conditions,Clouds,dailyrainin,SoftwareType,DateUTC
2013-04-25 00:01:00,58.7,53.5,29.74,WSW,240,3.0,3.0,83,0.00,,,0.00,Wunderground v.1.15,2013-04-25 04:01:00,
2013-04-25 00:02:00,58.7,53.5,29.74,SW,228,3.0,3.0,83,0.00,,,0.00,Wunderground v.1.15,2013-04-25 04:02:00,
2013-04-25 00:04:00,58.7,53.5,29.74,SSW,194,0.0,3.0,83,0.00,,,0.00,Wunderground v.1.15,2013-04-25 04:04:00,
2013-04-25 00:06:00,58.7,53.5,29.74,SSW,203,2.0,3.0,83,0.00,,,0.00,Wunderground v.1.15,2013-04-25 04:06:00,
2013-04-25 00:08:00,58.6,53.5,29.74,South,173,1.0,3.0,83,0.00,,,0.00,Wunderground v.1.15,2013-04-25 04:08:00,
2013-04-25 00:13:00,58.6,53.8,29.75,West,270,1.0,2.0,84,0.00,,,0.00,Wunderground v.1.15,2013-04-25 04:13:00,
2013-04-25 00:18:00,58.7,53.9,29.75,West,270,2.0,4.0,84,0.00,,,0.00,Wunderground v.1.15,2013-04-25 04:18:00,
2013-04-25 00:23:00,58.7,53.9,29.76,West,275,3.0,3.0,84,0.00,,,0.00,Wunderground v.1.15,2013-04-25 04:23:00,
2013-04-25 00:28:00,58.8,54.0,29.75,SSW,210,1.0,6.0,84,0.00,,,0.00,Wunderground v.1.15,2013-04-25 04:28:00,
2013-04-25 00:33:00,58.9,54.1,29.76,West,269,2.0,3.0,84,0.00,,,0.00,Wunderground v.1.15,2013-04-25 04:33:00,
2013-04-25 00:38:00,59.0,54.2,29.76,West,276,4.0,5.0,84,0.00,,,0.00,Wunderground v.1.15,2013-04-25 04:38:00,
2013-04-25 00:43:00,59.1,54.3,29.76,WNW,283,2.0,3.0,84,0.00,,,0.00,Wunderground v.1.15,2013-04-25 04:43:00,
2013-04-25 00:48:00,59.3,54.5,29.76,WSW,252,2.0,3.0,84,0.00,,,0.00,Wunderground v.1.15,2013-04-25 04:48:00,
2013-04-25 00:54:00,59.4,54.6,29.76,West,281,3.0,3.0,84,0.00,,,0.00,Wunderground v.1.15,2013-04-25 04:54:00,
2013-04-25 00:59:00,59.6,54.8,29.77,WNW,285,4.0,4.0,84,0.00,,,0.00,Wunderground v.1.15,2013-04-25 04:59:00,
2013-04-25 01:04:00,59.7,54.9,29.78,West,278,4.0,4.0,84,0.00,,,0.00,Wunderground v.1.15,2013-04-25 05:04:00,
2013-04-25 01:09:00,59.8,55.0,29.78,WNW,293,7.0,9.0,84,0.00,,,0.00,Wunderground v.1.15,2013-04-25 05:09:00,
2013-04-25 01:14:00,60.2,55.0,29.78,NNW,340,3.0,9.0,83,0.00,,,0.00,Wunderground v.1.15,2013-04-25 05:14:00,
2013-04-25 01:19:00,60.6,55.1,29.78,North,352,6.0,9.0,82,0.00,,,0.00,Wunderground v.1.15,2013-04-25 05:19:00,
2013-04-25 01:24:00,60.9,54.3,29.79,NNW,330,9.0,9.0,79,0.00,,,0.00,Wunderground v.1.15,2013-04-25 05:24:00,
2013-04-25 01:29:00,61.1,52.4,29.79,NNW,344,7.0,9.0,73,0.00,,,0.00,Wunderground v.1.15,2013-04-25 05:29:00,
2013-04-25 01:34:00,61.0,49.1,29.80,NNW,337,7.0,17.0,65,0.00,,,0.00,Wunderground v.1.15,2013-04-25 05:34:00,
2013-04-25 01:39:00,60.6,46.6,29.80,North,360,10.0,17.0,60,0.00,,,0.00,Wunderground v.1.15,2013-04-25 05:39:00,
2013-04-25 01:44:00,60.4,45.1,29.80,NW,326,14.0,14.0,57,0.00,,,0.00,Wunderground v.1.15,2013-04-25 05:44:00,
2013-04-25 01:49:00,60.2,45.4,29.80,WSW,256,5.0,14.0,58,0.00,,,0.00,Wunderground v.1.15,2013-04-25 05:49:00,
2013-04-25 01:55:00,60.0,45.6,29.81,West,278,4.0,11.0,59,0.00,,,0.00,Wunderground v.1.15,2013-04-25 05:55:00,
2013-04-25 02:00:00,59.8,45.9,29.81,WNW,299,5.0,11.0,60,0.00,,,0.00,Wunderground v.1.15,2013-04-25 06:00:00,
2013-04-25 02:05:00,59.4,45.5,29.81,NW,306,4.0,11.0,60,0.00,,,0.00,Wunderground v.1.15,2013-04-25 06:05:00,
2013-04-25 02:10:00,59.0,45.6,29.81,NW,314,5.0,16.0,61,0.00,,,0.00,Wunderground v.1.15,2013-04-25 06:10:00,
2013-04-25 02:15:00,58.7,44.0,29.82,NNW,342,17.0,24.0,58,0.00,,,0.00,Wunderground v.1.15,2013-04-25 06:15:00,
2013-04-25 02:20:00,58.0,42.4,29.82,NW,322,8.0,24.0,56,0.00,,,0.00,Wunderground v.1.15,2013-04-25 06:20:00,
2013-04-25 02:25:00,57.4,42.3,29.82,NNW,340,4.0,21.0,57,0.00,,,0.00,Wunderground v.1.15,2013-04-25 06:25:00,
2013-04-25 02:30:00,57.0,41.9,29.83,NW,322,4.0,21.0,57,0.00,,,0.00,Wunderground v.1.15,2013-04-25 06:30:00,
2013-04-25 02:35:00,56.8,41.7,29.83,NW,310,7.0,14.0,57,0.00,,,0.00,Wunderground v.1.15,2013-04-25 06:35:00,
2013-04-25 02:40:00,56.5,41.9,29.83,WNW,298,7.0,14.0,58,0.00,,,0.00,Wunderground v.1.15,2013-04-25 06:40:00,
2013-04-25 02:45:00,56.0,41.9,29.83,WNW,290,7.0,14.0,59,0.00,,,0.00,Wunderground v.1.15,2013-04-25 06:45:00,
2013-04-25 02:50:00,55.5,41.8,29.84,NNW,328,10.0,17.0,60,0.00,,,0.00,Wunderground v.1.15,2013-04-25 06:50:00,
2013-04-25 02:55:00,54.9,41.7,29.84,West,278,11.0,17.0,61,0.00,,,0.00,Wunderground v.1.15,2013-04-25 06:55:00,
2013-04-25 03:00:00,54.3,41.6,29.84,WNW,288,4.0,17.0,62,0.00,,,0.00,Wunderground v.1.15,2013-04-25 07:00:00,
2013-04-25 03:05:00,53.9,41.6,29.85,NNW,327,5.0,12.0,63,0.00,,,0.00,Wunderground v.1.15,2013-04-25 07:05:00,
2013-04-25 03:10:00,53.7,41.4,29.85,NNW,338,5.0,15.0,63,0.00,,,0.00,Wunderground v.1.15,2013-04-25 07:10:00,
2013-04-25 03:15:00,53.5,41.2,29.85,NW,326,3.0,14.0,63,0.00,,,0.00,Wunderground v.1.15,2013-04-25 07:15:00,
2013-04-25 03:20:00,53.4,41.5,29.86,NW,326,3.0,14.0,64,0.00,,,0.00,Wunderground v.1.15,2013-04-25 07:20:00,
2013-04-25 03:25:00,53.4,41.1,29.86,NW,326,7.0,13.0,63,0.00,,,0.00,Wunderground v.1.15,2013-04-25 07:25:00,
2013-04-25 03:30:00,53.2,41.3,29.86,NNW,328,3.0,13.0,64,0.00,,,0.00,Wunderground v.1.15,2013-04-25 07:30:00,
2013-04-25 03:35:00,53.1,41.2,29.87,NW,324,4.0,17.0,64,0.00,,,0.00,Wunderground v.1.15,2013-04-25 07:35:00,
2013-04-25 03:40:00,52.9,41.0,29.86,NW,322,3.0,17.0,64,0.00,,,0.00,Wunderground v.1.15,2013-04-25 07:40:00,
2013-04-25 03:45:00,52.8,41.0,29.86,NNW,340,4.0,12.0,64,0.00,,,0.00,Wunderground v.1.15,2013-04-25 07:45:00,
2013-04-25 03:50:00,52.8,41.0,29.88,NW,314,2.0,15.0,64,0.00,,,0.00,Wunderground v.1.15,2013-04-25 07:50:00,
2013-04-25 03:55:00,52.7,40.9,29.88,West,279,2.0,11.0,64,0.00,,,0.00,Wunderground v.1.15,2013-04-25 07:55:00,
2013-04-25 04:00:00,52.6,40.8,29.88,NNW,345,5.0,11.0,64,0.00,,,0.00,Wunderground v.1.15,2013-04-25 08:00:00,
2013-04-25 04:05:00,52.6,40.8,29.89,NNW,328,4.0,9.0,64,0.00,,,0.00,Wunderground v.1.15,2013-04-25 08:05:00,
2013-04-25 04:10:00,52.5,40.7,29.89,WNW,288,4.0,11.0,64,0.00,,,0.00,Wunderground v.1.15,2013-04-25 08:10:00,
2013-04-25 04:15:00,52.4,40.2,29.91,NNW,340,3.0,12.0,63,0.00,,,0.00,Wunderground v.1.15,2013-04-25 08:15:00,
2013-04-25 04:20:00,52.3,40.5,29.91,NNW,338,7.0,12.0,64,0.00,,,0.00,Wunderground v.1.15,2013-04-25 08:20:00,
2013-04-25 04:25:00,52.1,38.6,29.90,NNW,329,3.0,20.0,60,0.00,,,0.00,Wunderground v.1.15,2013-04-25 08:25:00,
2013-04-25 04:30:00,52.0,38.5,29.91,NNW,346,7.0,20.0,60,0.00,,,0.00,Wunderground v.1.15,2013-04-25 08:30:00,
2013-04-25 04:35:00,51.8,37.5,29.91,NW,316,5.0,14.0,58,0.00,,,0.00,Wunderground v.1.15,2013-04-25 08:35:00,
2013-04-25 04:40:00,51.6,37.3,29.92,NNW,338,9.0,14.0,58,0.00,,,0.00,Wunderground v.1.15,2013-04-25 08:40:00,
2013-04-25 04:45:00,51.4,37.5,29.92,NNE,30,4.0,11.0,59,0.00,,,0.00,Wunderground v.1.15,2013-04-25 08:45:00,
2013-04-25 04:50:00,51.2,38.2,29.94,NNW,335,4.0,13.0,61,0.00,,,0.00,Wunderground v.1.15,2013-04-25 08:50:00,
2013-04-25 04:55:00,50.8,37.4,29.93,NW,305,4.0,11.0,60,0.00,,,0.00,Wunderground v.1.15,2013-04-25 08:55:00,
2013-04-25 05:00:00,50.6,36.8,29.94,WNW,298,3.0,6.0,59,0.00,,,0.00,Wunderground v.1.15,2013-04-25 09:00:00,
2013-04-25 05:05:00,50.6,36.8,29.95,NNW,333,2.0,10.0,59,0.00,,,0.00,Wunderground v.1.15,2013-04-25 09:05:00,
2013-04-25 05:11:00,50.4,36.2,29.95,NW,316,9.0,9.0,58,0.00,,,0.00,Wunderground v.1.15,2013-04-25 09:11:00,
2013-04-25 05:16:00,50.4,35.7,29.95,NNW,340,10.0,12.0,57,0.00,,,0.00,Wunderground v.1.15,2013-04-25 09:16:00,
2013-04-25 05:21:00,50.3,35.6,29.95,NNE,18,6.0,6.0,57,0.00,,,0.00,Wunderground v.1.15,2013-04-25 09:21:00,
2013-04-25 05:26:00,50.1,35.0,29.95,NW,312,4.0,11.0,56,0.00,,,0.00,Wunderground v.1.15,2013-04-25 09:26:00,
2013-04-25 05:31:00,49.7,35.1,29.95,NNW,346,6.0,14.0,57,0.00,,,0.00,Wunderground v.1.15,2013-04-25 09:31:00,
2013-04-25 05:36:00,49.4,34.8,29.97,NNE,32,6.0,14.0,57,0.00,,,0.00,Wunderground v.1.15,2013-04-25 09:36:00,
2013-04-25 05:41:00,49.3,35.1,29.97,NNW,340,3.0,8.0,58,0.00,,,0.00,Wunderground v.1.15,2013-04-25 09:41:00,
2013-04-25 05:46:00,49.1,34.9,29.98,North,8,8.0,10.0,58,0.00,,,0.00,Wunderground v.1.15,2013-04-25 09:46:00,
2013-04-25 06:09:00,47.9,32.9,30.00,NNW,346,6.0,7.0,56,0.00,,,0.00,Wunderground v.1.15,2013-04-25 10:09:00,
2013-04-25 06:17:00,47.3,32.8,30.00,North,360,6.0,7.0,57,0.00,,,0.00,Wunderground v.1.15,2013-04-25 10:17:00,
2013-04-25 06:22:00,47.0,32.5,30.01,NNW,328,4.0,20.0,57,0.00,,,0.00,Wunderground v.1.15,2013-04-25 10:22:00,
2013-04-25 06:27:00,46.8,32.8,30.01,NNW,335,7.0,20.0,58,0.00,,,0.00,Wunderground v.1.15,2013-04-25 10:27:00,
2013-04-25 06:32:00,46.6,33.0,30.01,NNE,23,8.0,8.0,59,0.00,,,0.00,Wunderground v.1.15,2013-04-25 10:32:00,
2013-04-25 06:37:00,46.5,32.9,30.02,NNE,22,13.0,13.0,59,0.00,,,0.00,Wunderground v.1.15,2013-04-25 10:37:00,
2013-04-25 06:42:00,46.5,32.9,30.03,ENE,68,4.0,12.0,59,0.00,,,0.00,Wunderground v.1.15,2013-04-25 10:42:00,
2013-04-25 06:47:00,46.4,32.8,30.03,North,4,9.0,15.0,59,0.00,,,0.00,Wunderground v.1.15,2013-04-25 10:47:00,
2013-04-25 06:52:00,46.5,32.9,30.03,WNW,293,3.0,10.0,59,0.00,,,0.00,Wunderground v.1.15,2013-04-25 10:52:00,
2013-04-25 06:57:00,46.5,32.9,30.04,North,356,9.0,12.0,59,0.00,,,0.00,Wunderground v.1.15,2013-04-25 10:57:00,
2013-04-25 07:02:00,46.5,32.9,30.04,NW,316,5.0,11.0,59,0.00,,,0.00,Wunderground v.1.15,2013-04-25 11:02:00,
2013-04-25 07:07:00,46.5,32.5,30.05,North,352,4.0,12.0,58,0.00,,,0.00,Wunderground v.1.15,2013-04-25 11:07:00,
2013-04-25 07:12:00,46.5,32.1,30.05,North,8,7.0,16.0,57,0.00,,,0.00,Wunderground v.1.15,2013-04-25 11:12:00,
2013-04-25 07:17:00,46.5,32.1,30.05,North,1,13.0,19.0,57,0.00,,,0.00,Wunderground v.1.15,2013-04-25 11:17:00,
2013-04-25 07:22:00,46.5,32.1,30.05,NW,308,12.0,17.0,57,0.00,,,0.00,Wunderground v.1.15,2013-04-25 11:22:00,
2013-04-25 07:28:00,46.5,31.6,30.06,ENE,64,7.0,19.0,56,0.00,,,0.00,Wunderground v.1.15,2013-04-25 11:28:00,
2013-04-25 07:33:00,46.5,31.6,30.06,North,358,7.0,18.0,56,0.00,,,0.00,Wunderground v.1.15,2013-04-25 11:33:00,
2013-04-25 07:38:00,46.4,31.5,30.07,NNW,344,9.0,18.0,56,0.00,,,0.00,Wunderground v.1.15,2013-04-25 11:38:00,
2013-04-25 07:43:00,46.4,31.5,30.07,WNW,297,2.0,18.0,56,0.00,,,0.00,Wunderground v.1.15,2013-04-25 11:43:00,
2013-04-25 07:48:00,46.6,31.3,30.07,NNW,344,10.0,18.0,55,0.00,,,0.00,Wunderground v.1.15,2013-04-25 11:48:00,
2013-04-25 07:53:00,46.7,31.4,30.07,NW,314,6.0,13.0,55,0.00,,,0.00,Wunderground v.1.15,2013-04-25 11:53:00,
2013-04-25 07:58:00,46.9,31.6,30.07,NW,326,8.0,16.0,55,0.00,,,0.00,Wunderground v.1.15,2013-04-25 11:58:00,
2013-04-25 08:03:00,46.9,31.6,30.07,NNE,13,8.0,17.0,55,0.00,,,0.00,Wunderground v.1.15,2013-04-25 12:03:00,
2013-04-25 08:08:00,46.9,31.1,30.07,NNW,345,6.0,17.0,54,0.00,,,0.00,Wunderground v.1.15,2013-04-25 12:08:00,
2013-04-25 08:13:00,47.3,31.9,30.07,North,9,5.0,8.0,55,0.00,,,0.00,Wunderground v.1.15,2013-04-25 12:13:00,
2013-04-25 08:18:00,47.4,31.6,30.07,NNW,339,2.0,16.0,54,0.00,,,0.00,Wunderground v.1.15,2013-04-25 12:18:00,
2013-04-25 08:24:00,47.8,31.5,30.08,NW,316,6.0,11.0,53,0.00,,,0.00,Wunderground v.1.15,2013-04-25 12:24:00,
2013-04-25 08:29:00,47.9,31.1,30.08,NE,53,6.0,13.0,52,0.00,,,0.00,Wunderground v.1.15,2013-04-25 12:29:00,
2013-04-25 08:34:00,48.3,31.5,30.08,NE,47,2.0,8.0,52,0.00,,,0.00,Wunderground v.1.15,2013-04-25 12:34:00,
2013-04-25 08:39:00,48.6,31.3,30.08,North,358,5.0,11.0,51,0.00,,,0.00,Wunderground v.1.15,2013-04-25 12:39:00,
2013-04-25 08:44:00,48.7,31.4,30.08,NW,323,6.0,10.0,51,0.00,,,0.00,Wunderground v.1.15,2013-04-25 12:44:00,
2013-04-25 08:49:00,48.8,30.5,30.08,NNW,342,6.0,16.0,49,0.00,,,0.00,Wunderground v.1.15,2013-04-25 12:49:00,
2013-04-25 08:54:00,48.7,30.4,30.08,NW,323,2.0,13.0,49,0.00,,,0.00,Wunderground v.1.15,2013-04-25 12:54:00,
2013-04-25 08:59:00,49.0,30.7,30.08,ENE,72,2.0,13.0,49,0.00,,,0.00,Wunderground v.1.15,2013-04-25 12:59:00,
2013-04-25 09:04:00,49.6,30.2,30.08,NNE,15,8.0,13.0,47,0.00,,,0.00,Wunderground v.1.15,2013-04-25 13:04:00,
2013-04-25 09:09:00,49.6,30.7,30.08,NNW,335,7.0,13.0,48,0.00,,,0.00,Wunderground v.1.15,2013-04-25 13:09:00,
2013-04-25 09:14:00,49.6,29.6,30.08,NE,40,6.0,16.0,46,0.00,,,0.00,Wunderground v.1.15,2013-04-25 13:14:00,
2013-04-25 09:19:00,49.7,30.3,30.09,NE,51,6.0,16.0,47,0.00,,,0.00,Wunderground v.1.15,2013-04-25 13:19:00,
2013-04-25 09:24:00,50.2,29.7,30.08,North,349,6.0,15.0,45,0.00,,,0.00,Wunderground v.1.15,2013-04-25 13:24:00,
2013-04-25 09:29:00,50.2,30.2,30.08,WNW,300,6.0,15.0,46,0.00,,,0.00,Wunderground v.1.15,2013-04-25 13:29:00,
2013-04-25 09:35:00,50.3,30.3,30.08,NW,326,7.0,12.0,46,0.00,,,0.00,Wunderground v.1.15,2013-04-25 13:35:00,
2013-04-25 09:40:00,50.5,30.5,30.08,NW,323,6.0,12.0,46,0.00,,,0.00,Wunderground v.1.15,2013-04-25 13:40:00,
2013-04-25 09:45:00,50.8,29.6,30.08,NNW,328,4.0,16.0,44,0.00,,,0.00,Wunderground v.1.15,2013-04-25 13:45:00,
2013-04-25 09:50:00,50.7,30.1,30.08,North,352,6.0,16.0,45,0.00,,,0.00,Wunderground v.1.15,2013-04-25 13:50:00,
2013-04-25 09:55:00,51.0,30.4,30.09,NNE,22,5.0,12.0,45,0.00,,,0.00,Wunderground v.1.15,2013-04-25 13:55:00,
2013-04-25 10:00:00,51.5,30.3,30.08,North,352,2.0,6.0,44,0.00,,,0.00,Wunderground v.1.15,2013-04-25 14:00:00,
2013-04-25 10:05:00,51.9,30.6,30.08,NW,312,5.0,12.0,44,0.00,,,0.00,Wunderground v.1.15,2013-04-25 14:05:00,
2013-04-25 10:10:00,52.1,30.8,30.08,NNE,32,10.0,10.0,44,0.00,,,0.00,Wunderground v.1.15,2013-04-25 14:10:00,
2013-04-25 10:15:00,51.9,30.1,30.08,NW,314,3.0,14.0,43,0.00,,,0.00,Wunderground v.1.15,2013-04-25 14:15:00,
2013-04-25 10:21:00,52.2,30.4,30.08,NNW,346,4.0,7.0,43,0.00,,,0.00,Wunderground v.1.15,2013-04-25 14:21:00,
2013-04-25 10:26:00,52.4,30.5,30.08,NW,323,1.0,12.0,43,0.00,,,0.00,Wunderground v.1.15,2013-04-25 14:26:00,
2013-04-25 10:31:00,52.9,29.2,30.08,West,266,7.0,7.0,40,0.00,,,0.00,Wunderground v.1.15,2013-04-25 14:31:00,
2013-04-25 10:36:00,53.8,31.8,30.08,East,88,4.0,9.0,43,0.00,,,0.00,Wunderground v.1.15,2013-04-25 14:36:00,
2013-04-25 10:41:00,54.1,29.0,30.08,NE,41,3.0,5.0,38,0.00,,,0.00,Wunderground v.1.15,2013-04-25 14:41:00,
2013-04-25 10:46:00,54.3,29.2,30.08,North,360,2.0,11.0,38,0.00,,,0.00,Wunderground v.1.15,2013-04-25 14:46:00,
2013-04-25 10:51:00,54.7,30.2,30.08,NE,37,4.0,7.0,39,0.00,,,0.00,Wunderground v.1.15,2013-04-25 14:51:00,
2013-04-25 10:56:00,55.0,30.5,30.09,NW,314,6.0,8.0,39,0.00,,,0.00,Wunderground v.1.15,2013-04-25 14:56:00,
2013-04-25 11:01:00,55.2,31.3,30.08,NNW,345,3.0,5.0,40,0.00,,,0.00,Wunderground v.1.15,2013-04-25 15:01:00,
2013-04-25 11:06:00,55.4,30.8,30.08,NW,306,4.0,8.0,39,0.00,,,0.00,Wunderground v.1.15,2013-04-25 15:06:00,
2013-04-25 11:11:00,55.8,31.2,30.08,North,356,2.0,5.0,39,0.00,,,0.00,Wunderground v.1.15,2013-04-25 15:11:00,
2013-04-25 11:17:00,56.0,30.1,30.08,NW,324,4.0,10.0,37,0.00,,,0.00,Wunderground v.1.15,2013-04-25 15:17:00,
2013-04-25 11:22:00,55.9,29.3,30.08,NW,323,5.0,12.0,36,0.00,,,0.00,Wunderground v.1.15,2013-04-25 15:22:00,
2013-04-25 11:27:00,56.0,28.0,30.09,NNW,335,6.0,14.0,34,0.00,,,0.00,Wunderground v.1.15,2013-04-25 15:27:00,
2013-04-25 11:32:00,55.5,28.3,30.09,NW,312,7.0,8.0,35,0.00,,,0.00,Wunderground v.1.15,2013-04-25 15:32:00,
2013-04-25 11:37:00,55.4,26.7,30.09,NE,51,3.0,11.0,33,0.00,,,0.00,Wunderground v.1.15,2013-04-25 15:37:00,
2013-04-25 11:42:00,55.7,27.7,30.09,NNE,27,6.0,8.0,34,0.00,,,0.00,Wunderground v.1.15,2013-04-25 15:42:00,
2013-04-25 11:47:00,55.8,28.5,30.09,NNE,18,6.0,10.0,35,0.00,,,0.00,Wunderground v.1.15,2013-04-25 15:47:00,
2013-04-25 11:52:00,56.2,28.9,30.09,NNW,331,2.0,5.0,35,0.00,,,0.00,Wunderground v.1.15,2013-04-25 15:52:00,
2013-04-25 11:57:00,57.1,30.4,30.09,WNW,300,3.0,10.0,36,0.00,,,0.00,Wunderground v.1.15,2013-04-25 15:57:00,
2013-04-25 12:02:00,57.2,30.5,30.09,NW,304,3.0,9.0,36,0.00,,,0.00,Wunderground v.1.15,2013-04-25 16:02:00,
2013-04-25 12:07:00,57.3,29.9,30.09,NW,325,6.0,13.0,35,0.00,,,0.00,Wunderground v.1.15,2013-04-25 16:07:00,
2013-04-25 12:12:00,57.0,29.6,30.09,NNW,345,4.0,6.0,35,0.00,,,0.00,Wunderground v.1.15,2013-04-25 16:12:00,
2013-04-25 12:17:00,57.1,29.0,30.09,WNW,290,5.0,10.0,34,0.00,,,0.00,Wunderground v.1.15,2013-04-25 16:17:00,
2013-04-25 12:23:00,56.8,29.4,30.09,NW,306,2.0,11.0,35,0.00,,,0.00,Wunderground v.1.15,2013-04-25 16:23:00,
2013-04-25 12:28:00,57.1,31.0,30.08,West,278,4.0,11.0,37,0.00,,,0.00,Wunderground v.1.15,2013-04-25 16:28:00,
2013-04-25 12:33:00,57.7,30.2,30.08,North,6,3.0,8.0,35,0.00,,,0.00,Wunderground v.1.15,2013-04-25 16:33:00,
2013-04-25 12:38:00,58.0,30.5,30.08,NW,323,5.0,8.0,35,0.00,,,0.00,Wunderground v.1.15,2013-04-25 16:38:00,
2013-04-25 12:43:00,58.0,31.8,30.08,North,6,4.0,10.0,37,0.00,,,0.00,Wunderground v.1.15,2013-04-25 16:43:00,
2013-04-25 12:48:00,58.4,32.2,30.08,NNE,20,4.0,10.0,37,0.00,,,0.00,Wunderground v.1.15,2013-04-25 16:48:00,
2013-04-25 12:53:00,58.6,31.7,30.08,North,6,2.0,5.0,36,0.00,,,0.00,Wunderground v.1.15,2013-04-25 16:53:00,
2013-04-25 12:58:00,59.5,32.5,30.08,NNW,327,2.0,8.0,36,0.00,,,0.00,Wunderground v.1.15,2013-04-25 16:58:00,
2013-04-25 13:03:00,59.5,31.1,30.07,North,360,5.0,7.0,34,0.00,,,0.00,Wunderground v.1.15,2013-04-25 17:03:00,
2013-04-25 13:08:00,59.7,30.5,30.07,NNE,25,7.0,10.0,33,0.00,,,0.00,Wunderground v.1.15,2013-04-25 17:08:00,
2013-04-25 13:13:00,59.9,29.9,30.07,NNW,345,3.0,7.0,32,0.00,,,0.00,Wunderground v.1.15,2013-04-25 17:13:00,
2013-04-25 13:19:00,60.4,31.9,30.07,NNE,26,7.0,7.0,34,0.00,,,0.00,Wunderground v.1.15,2013-04-25 17:19:00,
2013-04-25 13:24:00,60.6,30.6,30.07,ENE,58,1.0,11.0,32,0.00,,,0.00,Wunderground v.1.15,2013-04-25 17:24:00,
2013-04-25 13:29:00,61.0,31.7,30.07,NNW,345,3.0,11.0,33,0.00,,,0.00,Wunderground v.1.15,2013-04-25 17:29:00,
2013-04-25 13:34:00,60.9,29.2,30.06,WNW,298,1.0,9.0,30,0.00,,,0.00,Wunderground v.1.15,2013-04-25 17:34:00,
2013-04-25 13:39:00,61.4,30.5,30.07,WNW,301,3.0,9.0,31,0.00,,,0.00,Wunderground v.1.15,2013-04-25 17:39:00,
2013-04-25 13:44:00,61.4,30.5,30.06,WNW,284,7.0,10.0,31,0.00,,,0.00,Wunderground v.1.15,2013-04-25 17:44:00,
2013-04-25 13:50:00,61.4,30.5,30.06,SSE,148,2.0,10.0,31,0.00,,,0.00,Wunderground v.1.15,2013-04-25 17:50:00,
2013-04-25 13:55:00,61.8,30.0,30.06,NW,321,1.0,5.0,30,0.00,,,0.00,Wunderground v.1.15,2013-04-25 17:55:00,
2013-04-25 14:00:00,62.4,31.3,30.06,North,358,5.0,6.0,31,0.00,,,0.00,Wunderground v.1.15,2013-04-25 18:00:00,
2013-04-25 14:05:00,62.4,30.5,30.06,NNW,343,2.0,6.0,30,0.00,,,0.00,Wunderground v.1.15,2013-04-25 18:05:00,
2013-04-25 14:10:00,63.0,31.0,30.06,WNW,285,6.0,6.0,30,0.00,,,0.00,Wunderground v.1.15,2013-04-25 18:10:00,
2013-04-25 14:15:00,62.9,28.4,30.06,NNW,330,5.0,10.0,27,0.00,,,0.00,Wunderground v.1.15,2013-04-25 18:15:00,
2013-04-25 14:20:00,63.1,30.3,30.06,NW,318,2.0,10.0,29,0.00,,,0.00,Wunderground v.1.15,2013-04-25 18:20:00,
2013-04-25 14:25:00,62.8,29.2,30.06,WNW,295,2.0,9.0,28,0.00,,,0.00,Wunderground v.1.15,2013-04-25 18:25:00,
2013-04-25 14:30:00,63.1,29.4,30.05,South,179,0.0,9.0,28,0.00,,,0.00,Wunderground v.1.15,2013-04-25 18:30:00,
2013-04-25 14:35:00,63.8,29.1,30.05,NW,325,3.0,6.0,27,0.00,,,0.00,Wunderground v.1.15,2013-04-25 18:35:00,
2013-04-25 14:41:00,63.7,28.1,30.05,NNW,331,5.0,10.0,26,0.00,,,0.00,Wunderground v.1.15,2013-04-25 18:41:00,
2013-04-25 14:46:00,63.9,26.4,30.05,North,349,1.0,7.0,24,0.00,,,0.00,Wunderground v.1.15,2013-04-25 18:46:00,
2013-04-25 14:51:00,64.5,28.8,30.05,NNW,332,2.0,3.0,26,0.00,,,0.00,Wunderground v.1.15,2013-04-25 18:51:00,
2013-04-25 14:56:00,63.5,29.8,30.05,West,260,2.0,9.0,28,0.00,,,0.00,Wunderground v.1.15,2013-04-25 18:56:00,
2013-04-25 15:01:00,64.1,28.5,30.05,West,281,2.0,3.0,26,0.00,,,0.00,Wunderground v.1.15,2013-04-25 19:01:00,
2013-04-25 15:07:00,64.1,31.2,30.05,NW,323,0.0,9.0,29,0.00,,,0.00,Wunderground v.1.15,2013-04-25 19:07:00,
2013-04-25 15:12:00,64.7,29.0,30.05,WSW,240,4.0,5.0,26,0.00,,,0.00,Wunderground v.1.15,2013-04-25 19:12:00,
2013-04-25 15:17:00,64.2,27.6,30.05,NNW,335,8.0,11.0,25,0.00,,,0.00,Wunderground v.1.15,2013-04-25 19:17:00,
2013-04-25 15:22:00,64.0,29.3,30.04,NW,318,5.0,7.0,27,0.00,,,0.00,Wunderground v.1.15,2013-04-25 19:22:00,
2013-04-25 15:27:00,64.2,27.6,30.05,WNW,297,2.0,11.0,25,0.00,,,0.00,Wunderground v.1.15,2013-04-25 19:27:00,
2013-04-25 15:33:00,64.1,27.5,30.05,NNE,29,4.0,6.0,25,0.00,,,0.00,Wunderground v.1.15,2013-04-25 19:33:00,
2013-04-25 15:38:00,64.9,28.2,30.04,NNW,348,5.0,7.0,25,0.00,,,0.00,Wunderground v.1.15,2013-04-25 19:38:00,
2013-04-25 15:43:00,64.6,27.9,30.04,NNE,18,2.0,4.0,25,0.00,,,0.00,Wunderground v.1.15,2013-04-25 19:43:00,
2013-04-25 15:48:00,64.8,27.1,30.04,NE,49,0.0,5.0,24,0.00,,,0.00,Wunderground v.1.15,2013-04-25 19:48:00,
2013-04-25 15:53:00,65.7,27.9,30.04,NNW,329,5.0,5.0,24,0.00,,,0.00,Wunderground v.1.15,2013-04-25 19:53:00,
2013-04-25 15:58:00,65.7,27.9,30.04,West,271,2.0,9.0,24,0.00,,,0.00,Wunderground v.1.15,2013-04-25 19:58:00,
2013-04-25 16:03:00,66.0,28.1,30.04,North,6,5.0,12.0,24,0.00,,,0.00,Wunderground v.1.15,2013-04-25 20:03:00,
2013-04-25 16:08:00,65.6,27.8,30.04,SW,226,2.0,12.0,24,0.00,,,0.00,Wunderground v.1.15,2013-04-25 20:08:00,
2013-04-25 16:13:00,65.4,27.6,30.04,NW,323,4.0,7.0,24,0.00,,,0.00,Wunderground v.1.15,2013-04-25 20:13:00,
2013-04-25 16:18:00,65.3,29.5,30.04,NNW,329,3.0,7.0,26,0.00,,,0.00,Wunderground v.1.15,2013-04-25 20:18:00,
2013-04-25 16:23:00,66.0,30.1,30.04,WNW,292,5.0,6.0,26,0.00,,,0.00,Wunderground v.1.15,2013-04-25 20:23:00,
2013-04-25 16:29:00,65.2,27.5,30.04,NW,317,5.0,11.0,24,0.00,,,0.00,Wunderground v.1.15,2013-04-25 20:29:00,
2013-04-25 16:34:00,65.0,28.3,30.04,WNW,294,5.0,7.0,25,0.00,,,0.00,Wunderground v.1.15,2013-04-25 20:34:00,
2013-04-25 16:39:00,65.0,30.2,30.04,West,273,1.0,7.0,27,0.00,,,0.00,Wunderground v.1.15,2013-04-25 20:39:00,
2013-04-25 16:44:00,65.5,30.6,30.04,SW,233,4.0,5.0,27,0.00,,,0.00,Wunderground v.1.15,2013-04-25 20:44:00,
2013-04-25 16:50:00,65.5,26.7,30.04,NW,312,8.0,11.0,23,0.00,,,0.00,Wunderground v.1.15,2013-04-25 20:50:00,
2013-04-25 16:55:00,65.2,26.4,30.04,NNW,339,4.0,8.0,23,0.00,,,0.00,Wunderground v.1.15,2013-04-25 20:55:00,
2013-04-25 17:00:00,65.2,27.5,30.04,NNW,333,5.0,8.0,24,0.00,,,0.00,Wunderground v.1.15,2013-04-25 21:00:00,
2013-04-25 17:05:00,65.1,25.3,30.04,North,359,0.0,6.0,22,0.00,,,0.00,Wunderground v.1.15,2013-04-25 21:05:00,
2013-04-25 17:10:00,65.8,26.9,30.04,NNW,333,2.0,2.0,23,0.00,,,0.00,Wunderground v.1.15,2013-04-25 21:10:00,
2013-04-25 17:15:00,66.6,28.6,30.04,WSW,248,2.0,7.0,24,0.00,,,0.00,Wunderground v.1.15,2013-04-25 21:15:00,
2013-04-25 17:20:00,66.3,28.4,30.04,WSW,248,3.0,3.0,24,0.00,,,0.00,Wunderground v.1.15,2013-04-25 21:20:00,
2013-04-25 17:26:00,65.9,29.1,30.05,West,280,1.0,5.0,25,0.00,,,0.00,Wunderground v.1.15,2013-04-25 21:26:00,
2013-04-25 17:31:00,65.5,27.7,30.04,WSW,253,2.0,3.0,24,0.00,,,0.00,Wunderground v.1.15,2013-04-25 21:31:00,
2013-04-25 17:36:00,65.3,27.5,30.05,WNW,283,5.0,7.0,24,0.00,,,0.00,Wunderground v.1.15,2013-04-25 21:36:00,
2013-04-25 17:41:00,65.3,28.5,30.05,West,267,4.0,4.0,25,0.00,,,0.00,Wunderground v.1.15,2013-04-25 21:41:00,
2013-04-25 17:46:00,65.1,28.4,30.05,NNW,338,5.0,8.0,25,0.00,,,0.00,Wunderground v.1.15,2013-04-25 21:46:00,
2013-04-25 17:51:00,65.2,27.5,30.05,NW,313,2.0,6.0,24,0.00,,,0.00,Wunderground v.1.15,2013-04-25 21:51:00,
2013-04-25 17:56:00,65.0,29.2,30.05,West,276,6.0,7.0,26,0.00,,,0.00,Wunderground v.1.15,2013-04-25 21:56:00,
2013-04-25 18:01:00,65.1,28.4,30.05,SW,217,5.0,7.0,25,0.00,,,0.00,Wunderground v.1.15,2013-04-25 22:01:00,
2013-04-25 18:06:00,65.1,28.4,30.05,SW,214,2.0,8.0,25,0.00,,,0.00,Wunderground v.1.15,2013-04-25 22:06:00,
2013-04-25 18:11:00,65.1,28.4,30.05,WNW,294,4.0,6.0,25,0.00,,,0.00,Wunderground v.1.15,2013-04-25 22:11:00,
2013-04-25 18:16:00,65.0,28.3,30.05,South,184,2.0,6.0,25,0.00,,,0.00,Wunderground v.1.15,2013-04-25 22:16:00,
2013-04-25 18:21:00,64.7,29.0,30.05,West,262,6.0,6.0,26,0.00,,,0.00,Wunderground v.1.15,2013-04-25 22:21:00,
2013-04-25 18:26:00,64.6,29.8,30.05,SSW,201,2.0,8.0,27,0.00,,,0.00,Wunderground v.1.15,2013-04-25 22:26:00,
2013-04-25 18:31:00,64.4,28.7,30.06,West,266,5.0,6.0,26,0.00,,,0.00,Wunderground v.1.15,2013-04-25 22:31:00,
2013-04-25 18:36:00,64.2,29.5,30.06,WSW,257,2.0,7.0,27,0.00,,,0.00,Wunderground v.1.15,2013-04-25 22:36:00,
2013-04-25 18:41:00,63.7,29.1,30.06,SW,231,2.0,4.0,27,0.00,,,0.00,Wunderground v.1.15,2013-04-25 22:41:00,
2013-04-25 18:46:00,63.3,29.6,30.06,WSW,252,0.0,7.0,28,0.00,,,0.00,Wunderground v.1.15,2013-04-25 22:46:00,
2013-04-25 18:51:00,63.0,29.4,30.06,West,270,2.0,4.0,28,0.00,,,0.00,Wunderground v.1.15,2013-04-25 22:51:00,
2013-04-25 18:57:00,62.7,29.1,30.06,West,270,2.0,7.0,28,0.00,,,0.00,Wunderground v.1.15,2013-04-25 22:57:00,
2013-04-25 19:02:00,62.4,30.5,30.06,SW,228,2.0,4.0,30,0.00,,,0.00,Wunderground v.1.15,2013-04-25 23:02:00,
2013-04-25 19:07:00,62.2,29.5,30.06,NNW,328,5.0,6.0,29,0.00,,,0.00,Wunderground v.1.15,2013-04-25 23:07:00,
2013-04-25 19:12:00,62.0,28.5,30.06,West,275,2.0,5.0,28,0.00,,,0.00,Wunderground v.1.15,2013-04-25 23:12:00,
2013-04-25 19:17:00,61.9,28.4,30.06,WSW,250,3.0,6.0,28,0.00,,,0.00,Wunderground v.1.15,2013-04-25 23:17:00,
2013-04-25 19:22:00,61.6,28.1,30.06,WNW,300,4.0,4.0,28,0.00,,,0.00,Wunderground v.1.15,2013-04-25 23:22:00,
2013-04-25 19:27:00,61.4,28.8,30.06,WSW,252,1.0,7.0,29,0.00,,,0.00,Wunderground v.1.15,2013-04-25 23:27:00,
2013-04-25 19:32:00,61.1,28.6,30.07,SW,224,1.0,2.0,29,0.00,,,0.00,Wunderground v.1.15,2013-04-25 23:32:00,
2013-04-25 19:37:00,60.8,28.3,30.07,WSW,256,0.0,5.0,29,0.00,,,0.00,Wunderground v.1.15,2013-04-25 23:37:00,
2013-04-25 19:42:00,60.4,28.0,30.07,West,281,0.0,3.0,29,0.00,,,0.00,Wunderground v.1.15,2013-04-25 23:42:00,
2013-04-25 19:47:00,60.0,28.4,30.07,West,278,0.0,3.0,30,0.00,,,0.00,Wunderground v.1.15,2013-04-25 23:47:00,
2013-04-25 19:52:00,59.6,28.9,30.07,West,278,0.0,0.0,31,0.00,,,0.00,Wunderground v.1.15,2013-04-25 23:52:00,
2013-04-25 19:57:00,59.0,29.2,30.07,West,278,0.0,0.0,32,0.00,,,0.00,Wunderground v.1.15,2013-04-25 23:57:00,
2013-04-25 20:02:00,58.5,28.7,30.08,West,276,0.0,1.0,32,0.00,,,0.00,Wunderground v.1.15,2013-04-26 00:02:00,
2013-04-25 20:07:00,58.1,29.1,30.08,West,276,0.0,1.0,33,0.00,,,0.00,Wunderground v.1.15,2013-04-26 00:07:00,
2013-04-25 20:13:00,57.6,29.4,30.08,West,276,0.0,0.0,34,0.00,,,0.00,Wunderground v.1.15,2013-04-26 00:13:00,
2013-04-25 20:18:00,57.2,29.8,30.08,West,276,0.0,0.0,35,0.00,,,0.00,Wunderground v.1.15,2013-04-26 00:18:00,
2013-04-25 20:23:00,56.7,30.0,30.08,West,276,0.0,0.0,36,0.00,,,0.00,Wunderground v.1.15,2013-04-26 00:23:00,
2013-04-25 20:28:00,56.2,30.2,30.09,West,275,0.0,1.0,37,0.00,,,0.00,Wunderground v.1.15,2013-04-26 00:28:00,
2013-04-25 20:33:00,55.8,30.5,30.09,West,276,0.0,1.0,38,0.00,,,0.00,Wunderground v.1.15,2013-04-26 00:33:00,
2013-04-25 20:38:00,55.5,30.3,30.09,WSW,242,0.0,2.0,38,0.00,,,0.00,Wunderground v.1.15,2013-04-26 00:38:00,
2013-04-25 20:43:00,55.5,30.9,30.10,WSW,243,0.0,1.0,39,0.00,,,0.00,Wunderground v.1.15,2013-04-26 00:43:00,
2013-04-25 20:48:00,55.2,30.7,30.10,WSW,243,0.0,1.0,39,0.00,,,0.00,Wunderground v.1.15,2013-04-26 00:48:00,
2013-04-25 20:53:00,55.0,30.5,30.10,WSW,243,0.0,0.0,39,0.00,,,0.00,Wunderground v.1.15,2013-04-26 00:53:00,
2013-04-25 20:58:00,54.9,31.0,30.10,West,262,0.0,1.0,40,0.00,,,0.00,Wunderground v.1.15,2013-04-26 00:58:00,
2013-04-25 21:04:00,54.8,30.9,30.10,West,262,0.0,1.0,40,0.00,,,0.00,Wunderground v.1.15,2013-04-26 01:04:00,
2013-04-25 21:09:00,54.5,30.6,30.11,West,262,0.0,1.0,40,0.00,,,0.00,Wunderground v.1.15,2013-04-26 01:09:00,
2013-04-25 21:14:00,54.4,31.2,30.11,WSW,256,0.0,1.0,41,0.00,,,0.00,Wunderground v.1.15,2013-04-26 01:14:00,
2013-04-25 21:19:00,54.3,30.5,30.11,WSW,240,0.0,1.0,40,0.00,,,0.00,Wunderground v.1.15,2013-04-26 01:19:00,
2013-04-25 21:24:00,54.2,31.0,30.11,SW,228,0.0,1.0,41,0.00,,,0.00,Wunderground v.1.15,2013-04-26 01:24:00,
2013-04-25 21:29:00,54.1,30.3,30.12,SW,233,0.0,3.0,40,0.00,,,0.00,Wunderground v.1.15,2013-04-26 01:29:00,
2013-04-25 21:34:00,53.9,30.7,30.12,SW,226,1.0,2.0,41,0.00,,,0.00,Wunderground v.1.15,2013-04-26 01:34:00,
2013-04-25 21:39:00,53.0,31.1,30.13,SW,222,2.0,3.0,43,0.00,,,0.00,Wunderground v.1.15,2013-04-26 01:39:00,
2013-04-25 21:44:00,53.4,32.6,30.13,SSW,205,1.0,6.0,45,0.00,,,0.00,Wunderground v.1.15,2013-04-26 01:44:00,
2013-04-25 21:49:00,53.3,33.0,30.13,SSW,208,0.0,6.0,46,0.00,,,0.00,Wunderground v.1.15,2013-04-26 01:49:00,
2013-04-25 21:55:00,53.1,33.9,30.13,WSW,240,1.0,2.0,48,0.00,,,0.00,Wunderground v.1.15,2013-04-26 01:55:00,
2013-04-25 22:00:00,53.0,34.3,30.13,SW,217,0.0,3.0,49,0.00,,,0.00,Wunderground v.1.15,2013-04-26 02:00:00,
2013-04-25 22:05:00,52.6,35.0,30.13,SW,225,1.0,1.0,51,0.00,,,0.00,Wunderground v.1.15,2013-04-26 02:05:00,
2013-04-25 22:10:00,52.2,35.1,30.13,SW,225,1.0,1.0,52,0.00,,,0.00,Wunderground v.1.15,2013-04-26 02:10:00,
2013-04-25 22:15:00,51.8,35.7,30.13,SW,225,0.0,1.0,54,0.00,,,0.00,Wunderground v.1.15,2013-04-26 02:15:00,
2013-04-25 22:20:00,51.4,35.8,30.14,SW,225,0.0,1.0,55,0.00,,,0.00,Wunderground v.1.15,2013-04-26 02:20:00,
2013-04-25 22:25:00,50.9,36.2,30.14,SW,229,1.0,1.0,57,0.00,,,0.00,Wunderground v.1.15,2013-04-26 02:25:00,
2013-04-25 22:30:00,50.5,36.3,30.14,SW,228,0.0,1.0,58,0.00,,,0.00,Wunderground v.1.15,2013-04-26 02:30:00,
2013-04-25 22:35:00,50.2,36.4,30.14,SW,217,0.0,1.0,59,0.00,,,0.00,Wunderground v.1.15,2013-04-26 02:35:00,
2013-04-25 22:40:00,49.8,36.9,30.14,SW,219,0.0,1.0,61,0.00,,,0.00,Wunderground v.1.15,2013-04-26 02:40:00,
2013-04-25 22:45:00,49.9,37.0,30.14,WSW,238,1.0,3.0,61,0.00,,,0.00,Wunderground v.1.15,2013-04-26 02:45:00,
2013-04-25 22:51:00,49.9,37.4,30.14,SW,227,1.0,1.0,62,0.00,,,0.00,Wunderground v.1.15,2013-04-26 02:51:00,
2013-04-25 22:56:00,49.9,37.4,30.14,SW,228,0.0,2.0,62,0.00,,,0.00,Wunderground v.1.15,2013-04-26 02:56:00,
2013-04-25 23:01:00,49.7,37.6,30.14,West,259,1.0,1.0,63,0.00,,,0.00,Wunderground v.1.15,2013-04-26 03:01:00,
2013-04-25 23:06:00,49.6,37.9,30.14,WSW,252,0.0,2.0,64,0.00,,,0.00,Wunderground v.1.15,2013-04-26 03:06:00,
2013-04-25 23:11:00,49.4,37.7,30.14,SW,233,0.0,1.0,64,0.00,,,0.00,Wunderground v.1.15,2013-04-26 03:11:00,
2013-04-25 23:16:00,49.4,37.7,30.15,SW,217,1.0,2.0,64,0.00,,,0.00,Wunderground v.1.15,2013-04-26 03:16:00,
2013-04-25 23:21:00,49.5,38.2,30.15,SW,233,2.0,3.0,65,0.00,,,0.00,Wunderground v.1.15,2013-04-26 03:21:00,
2013-04-25 23:26:00,49.3,38.0,30.15,SW,229,1.0,3.0,65,0.00,,,0.00,Wunderground v.1.15,2013-04-26 03:26:00,
2013-04-25 23:31:00,49.3,38.0,30.15,SSW,197,1.0,2.0,65,0.00,,,0.00,Wunderground v.1.15,2013-04-26 03:31:00,
2013-04-25 23:36:00,49.1,37.8,30.15,SW,221,1.0,2.0,65,0.00,,,0.00,Wunderground v.1.15,2013-04-26 03:36:00,
2013-04-25 23:41:00,49.0,37.7,30.15,West,270,0.0,1.0,65,0.00,,,0.00,Wunderground v.1.15,2013-04-26 03:41:00,
2013-04-25 23:46:00,48.9,37.6,30.15,WSW,240,0.0,1.0,65,0.00,,,0.00,Wunderground v.1.15,2013-04-26 03:46:00,
2013-04-25 23:51:00,48.8,37.2,30.15,SW,229,0.0,0.0,64,0.00,,,0.00,Wunderground v.1.15,2013-04-26 03:51:00,
2013-04-25 23:56:00,48.4,37.2,30.15,SW,229,0.0,0.0,65,0.00,,,0.00,Wunderground v.1.15,2013-04-26 03:56:00,